Regional Weather Roundup
Issued by NWS Portland, ME

Home | Current Version | Previous Version | Text Only | Print | Product List | Glossary On
Versions: 1 2 3 4 5 6 7 8 9 10 11 12 13 14 15 16 17 18 19 20 21 22 23 24 25 26 27 28 29 30 31 32 33 34 35 36 37 38 39 40 41 42 43 44 45 46 47 48 49 50
596
ASUS41 KGYX 131005
RWRGYX
WEATHER ROUNDUP FOR MAINE AND NEW HAMPSHIRE
NATIONAL WEATHER SERVICE GRAY ME
500 AM EST SAT FEB 13 2016

MEZ002-005-006-010-012-015-018-020-021-024-026-027-029-131100-
MAINE

CITY           SKY/WX    TMP DP  RH WIND       PRES   REMARKS
PORTLAND       PTCLDY     4   1  88 NW5       29.80S
SANFORD        MOCLDY    -2  -9  71 CALM      29.77S
BAR HARBOR     CLOUDY     9   3  78 N6        29.81F
WISCASSET      CLOUDY     3  -1  83 CALM      29.81F
ROCKLAND       LGT SNOW  17  13  84 NW5       29.79F FOG
FRYEBURG       CLOUDY    -2  -6  83 CALM      29.76F
LEWISTONAUBURN PTCLDY     0  -8  71 CALM      29.76S
AUGUSTA        MOCLDY    -1  -6  79 NW7       29.78F
WATERVILLE     CLOUDY    -1  -5  82 N5        29.76F
BANGOR         FLURRIES   1  -5  75 N6        29.82F
GREENVILLE       N/A      5  -3  69 CALM      29.67F
MILLINOCKET    CLOUDY    -7 -15  68 CALM      29.84F
HOULTON        CLEAR    -17 -22  78 NE3       29.83F
PRESQUE ISLE   CLEAR    -23 -28  78 CALM      29.84F
FRENCHVILLE    CLOUDY    -5 -12  72 E10       29.77F WCI -23
CARIBOU        CLEAR    -11 -18  71 E3        29.81F
$$

NHZ002-005-008-009-011-012-014-131100-
NEW HAMPSHIRE

CITY           SKY/WX    TMP DP  RH WIND       PRES   REMARKS
PORTSMOUTH     CLOUDY     9   5  82 W2        29.78S
ROCHESTER      CLOUDY     7  -1  70 NW3       29.76F
NASHUA         CLOUDY     7   1  78 CALM      29.80S
MANCHESTER     CLOUDY    11   4  73 CALM      29.77F
CONCORD        CLOUDY     6   1  80 CALM      29.78F
LACONIA        CLOUDY     9   3  78 CALM      29.77S
PLYMOUTH       CLOUDY     6   4  88 CALM      29.78R
BERLIN         MOCLDY     0  -5  79 CALM      29.71S
WHITEFIELD     CLOUDY    10   6  84 CALM      29.71S FOG
JAFFREY        CLOUDY     4  -1  80 CALM      29.73S
KEENE          CLEAR      9   1  72 CALM      29.79R
LEBANON        CLOUDY     8   3  80 CALM      29.77R
MT WASHINGTON  SNOW      -8  -8 100 W17         N/A  VSB 0   WCI -31
$$

VTZ005-007-008-131100-
VERMONT

CITY           SKY/WX    TMP DP  RH WIND       PRES   REMARKS
ST JOHNSBURY     N/A     12   4  70 MISG      29.74R
MONTPELIER     LGT SNOW  11   6  81 NW10      29.77R WCI  -3
BURLINGTON     CLOUDY    13   3  64 N16       29.85R WCI  -3
$$

MAZ007-012-024-CTZ003-RIZ002-NYZ038-NYZ072-131100-
SOUTHERN NEW ENGLAND AND NY

CITY           SKY/WX    TMP DP  RH WIND       PRES   REMARKS
BOSTON         MOCLDY    21   8  57 W7        29.81S
WORCESTER      CLOUDY    12   5  73 W10       29.73R WCI  -1
NANTUCKET      LGT SNOW  23  18  81 NW13      29.79R WCI  11
PROVIDENCE     CLOUDY    18  10  71 W6        29.82S
HARTFORD       MOCLDY    16   8  71 SW5       29.82R
ALBANY         PTCLDY    18   7  62 W12       29.85R WCI   5
NEW YORK CITY  PTCLDY    22  12  65 W17G25    29.87S WCI   8
$$

ANZ081-ANZ082-ANZ150-NHZ014-MEZ023>029-131100-
COASTAL MARINE OBSERVATIONS

STATION/POSITION TIME  TEMP    WIND        PRES    WAVE
                       AIR SEA DIR/SP/G            HT/PER
                 (UTC) (F)     (DEG/KT/KT) (MB)    (FT/S)
MOUNT DESERT ROC 1000   24      80/ 21/ 23 1007.9F
MATINICUS ROCK   0900          340/ 16/ 18 1008.5F
ISLE OF SHOALS   0900   20     280/ 12/ 14 1008.1F
JEFFREYS LEDGE   0904      43                N/A     2/ 9
CASHES LEDGE BUO 0950   23 41   10/  6/ 10 1007.5
GEORGES BANK BUO 0850   32 44              1004.2    6/10
$$

.............KEY..............
   WCI - WIND CHILL
   TC  - TEMPERATURE IN CELSIUS
   VSB - VISIBILITY IN MILES
   HX  - HEAT INDEX
   FAIR- INDICATES FEW OR NO CLOUDS BELOW 12,000 FT, WITH NO
         SIGNIFICANT WEATHER AND/OR OBSTRUCTIONS TO VISIBILITY.






USA.gov is the U.S. government's official web portal to all federal, state and local government web resources and services.